Location: Bodest
(46.3000°N, 22.5667°E)
Time: 15:10:31
(UTC+00:00)

SL-19 R/B - Pass Details

Date: 03 June 2022
Orbit: 874 x 1208 km, 100.6° (Epoch: 03 July)

Event Time Altitude Azimuth Distance (km) Brightness Sun altitude
Rises 20:12:38 0° 6° (N) 4,033 8.6 -14.8°
Reaches altitude 10° 20:16:39 10° 344° (NNW) 3,113 8.4 -15.2°
Maximum altitude 20:20:01 14° 315° (NW) 2,834 8.1 -15.4°
Drops below altitude 10° 20:23:24 10° 287° (WNW) 3,152 7.8 -15.7°
Sets 20:27:33 0° 264° (W) 4,118 8.1 -16.1°
